Time,TemperatureF,DewpointF,PressureIn,WindDirection,WindDirectionDegrees,WindSpeedMPH,WindSpeedGustMPH,Humidity,HourlyPrecipIn,Conditions,Clouds,dailyrainin,SoftwareType,DateUTC
2013-03-22 00:00:00,31.5,13.6,29.95,NNE,24,1.0,2.0,47,0.00,,,0.00,Wunderground v.1.15,2013-03-22 04:00:00,
2013-03-22 00:02:00,31.5,14.0,29.95,NNE,24,1.0,2.0,48,0.00,,,0.00,Wunderground v.1.15,2013-03-22 04:02:00,
2013-03-22 00:04:00,31.4,13.9,29.95,ENE,71,1.0,2.0,48,0.00,,,0.00,Wunderground v.1.15,2013-03-22 04:04:00,
2013-03-22 00:08:00,31.3,13.9,29.95,NE,42,1.0,2.0,48,0.00,,,0.00,Wunderground v.1.15,2013-03-22 04:08:00,
2013-03-22 00:14:00,31.2,13.8,29.95,NNW,331,2.0,3.0,48,0.00,,,0.00,Wunderground v.1.15,2013-03-22 04:14:00,
2013-03-22 00:20:00,31.2,14.2,29.95,ENE,71,2.0,4.0,49,0.00,,,0.00,Wunderground v.1.15,2013-03-22 04:20:00,
2013-03-22 00:26:00,31.1,14.1,29.96,SSE,167,2.0,4.0,49,0.00,,,0.00,Wunderground v.1.15,2013-03-22 04:26:00,
2013-03-22 00:32:00,30.9,14.9,29.96,North,360,1.0,3.0,51,0.00,,,0.00,Wunderground v.1.15,2013-03-22 04:32:00,
2013-03-22 00:38:00,30.8,14.3,29.97,WNW,292,1.0,3.0,50,0.00,,,0.00,Wunderground v.1.15,2013-03-22 04:38:00,
2013-03-22 00:44:00,30.5,15.4,29.97,WNW,292,0.0,1.0,53,0.00,,,0.00,Wunderground v.1.15,2013-03-22 04:44:00,
2013-03-22 00:50:00,30.3,14.8,29.97,NNW,329,0.0,1.0,52,0.00,,,0.00,Wunderground v.1.15,2013-03-22 04:50:00,
2013-03-22 00:56:00,30.3,14.8,29.97,NE,53,1.0,2.0,52,0.00,,,0.00,Wunderground v.1.15,2013-03-22 04:56:00,
2013-03-22 01:02:00,30.2,14.7,29.97,NW,311,1.0,1.0,52,0.00,,,0.00,Wunderground v.1.15,2013-03-22 05:02:00,
2013-03-22 01:08:00,30.1,14.6,29.97,NNE,31,1.0,1.0,52,0.00,,,0.00,Wunderground v.1.15,2013-03-22 05:08:00,
2013-03-22 01:14:00,30.1,14.6,29.97,NE,46,1.0,1.0,52,0.00,,,0.00,Wunderground v.1.15,2013-03-22 05:14:00,
2013-03-22 01:20:00,30.2,14.7,29.97,NNE,19,1.0,1.0,52,0.00,,,0.00,Wunderground v.1.15,2013-03-22 05:20:00,
2013-03-22 01:26:00,30.0,14.9,29.97,NNE,19,1.0,1.0,53,0.00,,,0.00,Wunderground v.1.15,2013-03-22 05:26:00,
2013-03-22 01:32:00,29.8,14.7,29.97,West,281,1.0,4.0,53,0.00,,,0.00,Wunderground v.1.15,2013-03-22 05:32:00,
2013-03-22 01:38:00,29.7,15.1,29.98,NNW,331,1.0,4.0,54,0.00,,,0.00,Wunderground v.1.15,2013-03-22 05:38:00,
2013-03-22 01:44:00,29.6,15.0,29.98,NNW,331,0.0,1.0,54,0.00,,,0.00,Wunderground v.1.15,2013-03-22 05:44:00,
2013-03-22 01:50:00,29.6,15.0,29.98,NNW,332,0.0,0.0,54,0.00,,,0.00,Wunderground v.1.15,2013-03-22 05:50:00,
2013-03-22 01:56:00,29.6,15.0,29.98,NW,323,1.0,2.0,54,0.00,,,0.00,Wunderground v.1.15,2013-03-22 05:56:00,
2013-03-22 02:02:00,29.6,15.0,29.98,North,350,1.0,1.0,54,0.00,,,0.00,Wunderground v.1.15,2013-03-22 06:02:00,
2013-03-22 02:08:00,29.4,14.8,29.98,NW,307,0.0,1.0,54,0.00,,,0.00,Wunderground v.1.15,2013-03-22 06:08:00,
2013-03-22 02:14:00,29.0,14.8,29.98,NW,307,0.0,1.0,55,0.00,,,0.00,Wunderground v.1.15,2013-03-22 06:14:00,
2013-03-22 02:20:00,28.9,14.7,29.98,NW,326,0.0,0.0,55,0.00,,,0.00,Wunderground v.1.15,2013-03-22 06:20:00,
2013-03-22 02:26:00,28.9,14.7,29.98,ENE,63,1.0,1.0,55,0.00,,,0.00,Wunderground v.1.15,2013-03-22 06:26:00,
2013-03-22 02:32:00,28.9,14.7,29.98,ENE,63,0.0,1.0,55,0.00,,,0.00,Wunderground v.1.15,2013-03-22 06:32:00,
2013-03-22 02:38:00,28.7,15.0,29.98,NNW,341,0.0,1.0,56,0.00,,,0.00,Wunderground v.1.15,2013-03-22 06:38:00,
2013-03-22 02:44:00,28.5,14.8,29.98,NNW,341,0.0,2.0,56,0.00,,,0.00,Wunderground v.1.15,2013-03-22 06:44:00,
2013-03-22 02:50:00,28.3,15.0,29.98,NNW,341,0.0,1.0,57,0.00,,,0.00,Wunderground v.1.15,2013-03-22 06:50:00,
2013-03-22 02:56:00,28.2,14.9,29.98,NE,48,1.0,1.0,57,0.00,,,0.00,Wunderground v.1.15,2013-03-22 06:56:00,
2013-03-22 18:10:00,50.1,15.6,29.95,NNW,327,0.0,0.0,25,0.00,,,0.00,Wunderground v.1.15,2013-03-22 22:10:00,
2013-03-22 18:16:00,50.0,16.4,29.95,NNW,327,0.0,1.0,26,0.00,,,0.00,Wunderground v.1.15,2013-03-22 22:16:00,
2013-03-22 18:22:00,49.9,17.2,29.95,NNW,327,0.0,1.0,27,0.00,,,0.00,Wunderground v.1.15,2013-03-22 22:22:00,
2013-03-22 18:28:00,49.8,15.3,29.95,NNW,343,1.0,1.0,25,0.00,,,0.00,Wunderground v.1.15,2013-03-22 22:28:00,
2013-03-22 18:34:00,49.7,17.0,29.95,WNW,301,0.0,1.0,27,0.00,,,0.00,Wunderground v.1.15,2013-03-22 22:34:00,
2013-03-22 18:40:00,49.6,17.8,29.95,North,355,1.0,1.0,28,0.00,,,0.00,Wunderground v.1.15,2013-03-22 22:40:00,
2013-03-22 18:46:00,49.5,17.7,29.95,North,355,0.0,1.0,28,0.00,,,0.00,Wunderground v.1.15,2013-03-22 22:46:00,
2013-03-22 18:52:00,49.2,19.8,29.95,North,355,0.0,0.0,31,0.00,,,0.00,Wunderground v.1.15,2013-03-22 22:52:00,
2013-03-22 18:58:00,48.7,18.6,29.95,North,355,0.0,1.0,30,0.00,,,0.00,Wunderground v.1.15,2013-03-22 22:58:00,
2013-03-22 19:04:00,48.3,19.8,29.95,North,355,0.0,0.0,32,0.00,,,0.00,Wunderground v.1.15,2013-03-22 23:04:00,
2013-03-22 19:10:00,47.7,20.0,29.95,North,355,0.0,0.0,33,0.00,,,0.00,Wunderground v.1.15,2013-03-22 23:10:00,
2013-03-22 19:16:00,47.3,19.6,29.96,North,355,0.0,0.0,33,0.00,,,0.00,Wunderground v.1.15,2013-03-22 23:16:00,
2013-03-22 19:22:00,46.9,20.6,29.96,North,355,0.0,0.0,35,0.00,,,0.00,Wunderground v.1.15,2013-03-22 23:22:00,
2013-03-22 19:28:00,46.3,22.0,29.96,North,355,0.0,0.0,38,0.00,,,0.00,Wunderground v.1.15,2013-03-22 23:28:00,
2013-03-22 19:34:00,45.8,22.2,29.96,North,355,0.0,0.0,39,0.00,,,0.00,Wunderground v.1.15,2013-03-22 23:34:00,
2013-03-22 19:40:00,45.3,22.4,29.96,North,355,0.0,0.0,40,0.00,,,0.00,Wunderground v.1.15,2013-03-22 23:40:00,
2013-03-22 19:46:00,44.7,23.0,29.96,North,355,0.0,0.0,42,0.00,,,0.00,Wunderground v.1.15,2013-03-22 23:46:00,
2013-03-22 19:52:00,44.2,23.1,29.96,North,355,0.0,0.0,43,0.00,,,0.00,Wunderground v.1.15,2013-03-22 23:52:00,
2013-03-22 19:58:00,43.6,22.5,29.96,North,355,0.0,0.0,43,0.00,,,0.00,Wunderground v.1.15,2013-03-22 23:58:00,
2013-03-22 20:04:00,43.2,23.3,29.96,North,355,0.0,0.0,45,0.00,,,0.00,Wunderground v.1.15,2013-03-23 00:04:00,
2013-03-22 20:10:00,42.5,23.2,29.96,North,355,0.0,0.0,46,0.00,,,0.00,Wunderground v.1.15,2013-03-23 00:10:00,
2013-03-22 20:16:00,42.1,23.3,29.96,North,355,0.0,0.0,47,0.00,,,0.00,Wunderground v.1.15,2013-03-23 00:16:00,
2013-03-22 20:22:00,41.6,25.3,29.96,North,355,0.0,0.0,52,0.00,,,0.00,Wunderground v.1.15,2013-03-23 00:22:00,
2013-03-22 20:28:00,41.2,25.8,29.96,North,355,0.0,0.0,54,0.00,,,0.00,Wunderground v.1.15,2013-03-23 00:28:00,
2013-03-22 20:34:00,40.6,25.7,29.97,North,355,0.0,0.0,55,0.00,,,0.00,Wunderground v.1.15,2013-03-23 00:34:00,
2013-03-22 20:40:00,40.2,24.4,29.97,North,355,0.0,0.0,53,0.00,,,0.00,Wunderground v.1.15,2013-03-23 00:40:00,
2013-03-22 20:46:00,39.9,24.6,29.97,North,355,0.0,0.0,54,0.00,,,0.00,Wunderground v.1.15,2013-03-23 00:46:00,
2013-03-22 20:52:00,39.5,26.3,29.97,North,355,0.0,0.0,59,0.00,,,0.00,Wunderground v.1.15,2013-03-23 00:52:00,
2013-03-22 20:58:00,39.2,25.2,29.97,North,355,0.0,0.0,57,0.00,,,0.00,Wunderground v.1.15,2013-03-23 00:58:00,
2013-03-22 21:04:00,38.8,25.7,29.97,North,355,0.0,0.0,59,0.00,,,0.00,Wunderground v.1.15,2013-03-23 01:04:00,
2013-03-22 21:10:00,38.5,25.4,29.97,North,355,0.0,0.0,59,0.00,,,0.00,Wunderground v.1.15,2013-03-23 01:10:00,
2013-03-22 21:16:00,38.2,25.5,29.97,North,355,0.0,0.0,60,0.00,,,0.00,Wunderground v.1.15,2013-03-23 01:16:00,
2013-03-22 21:22:00,37.8,25.5,29.98,North,355,0.0,0.0,61,0.00,,,0.00,Wunderground v.1.15,2013-03-23 01:22:00,
2013-03-22 21:28:00,37.5,25.7,29.98,North,355,0.0,0.0,62,0.00,,,0.00,Wunderground v.1.15,2013-03-23 01:28:00,
2013-03-22 21:34:00,37.1,25.7,29.98,North,355,0.0,0.0,63,0.00,,,0.00,Wunderground v.1.15,2013-03-23 01:34:00,
2013-03-22 21:40:00,36.9,26.6,29.98,North,355,0.0,0.0,66,0.00,,,0.00,Wunderground v.1.15,2013-03-23 01:40:00,
2013-03-22 21:46:00,36.5,26.2,29.98,North,355,0.0,0.0,66,0.00,,,0.00,Wunderground v.1.15,2013-03-23 01:46:00,
2013-03-22 21:52:00,36.0,25.7,29.99,North,355,0.0,0.0,66,0.00,,,0.00,Wunderground v.1.15,2013-03-23 01:52:00,
2013-03-22 21:58:00,35.7,25.8,29.99,North,355,0.0,0.0,67,0.00,,,0.00,Wunderground v.1.15,2013-03-23 01:58:00,
2013-03-22 22:04:00,35.4,25.2,29.99,North,355,0.0,0.0,66,0.00,,,0.00,Wunderground v.1.15,2013-03-23 02:04:00,
2013-03-22 22:10:00,35.1,25.2,29.99,North,355,0.0,0.0,67,0.00,,,0.00,Wunderground v.1.15,2013-03-23 02:10:00,
2013-03-22 22:16:00,34.9,25.0,29.99,North,355,0.0,0.0,67,0.00,,,0.00,Wunderground v.1.15,2013-03-23 02:16:00,
2013-03-22 22:22:00,34.6,25.5,30.00,North,355,0.0,0.0,69,0.00,,,0.00,Wunderground v.1.15,2013-03-23 02:22:00,
2013-03-22 22:28:00,34.3,25.5,30.00,North,355,0.0,0.0,70,0.00,,,0.00,Wunderground v.1.15,2013-03-23 02:28:00,
2013-03-22 22:34:00,34.0,25.6,30.00,North,355,0.0,0.0,71,0.00,,,0.00,Wunderground v.1.15,2013-03-23 02:34:00,
2013-03-22 22:40:00,33.7,26.0,30.00,North,355,0.0,0.0,73,0.00,,,0.00,Wunderground v.1.15,2013-03-23 02:40:00,
2013-03-22 22:46:00,33.4,26.0,30.00,North,355,0.0,0.0,74,0.00,,,0.00,Wunderground v.1.15,2013-03-23 02:46:00,
2013-03-22 22:52:00,33.0,25.3,30.00,North,355,0.0,0.0,73,0.00,,,0.00,Wunderground v.1.15,2013-03-23 02:52:00,
2013-03-22 22:58:00,32.6,25.2,30.00,North,355,0.0,0.0,74,0.00,,,0.00,Wunderground v.1.15,2013-03-23 02:58:00,
2013-03-22 23:04:00,32.4,25.0,30.00,North,355,0.0,0.0,74,0.00,,,0.00,Wunderground v.1.15,2013-03-23 03:04:00,
2013-03-22 23:10:00,32.1,24.7,30.00,North,355,0.0,0.0,74,0.00,,,0.00,Wunderground v.1.15,2013-03-23 03:10:00,
2013-03-22 23:16:00,31.9,24.9,30.00,North,355,0.0,0.0,75,0.00,,,0.00,Wunderground v.1.15,2013-03-23 03:16:00,
2013-03-22 23:22:00,31.7,24.7,30.00,North,355,0.0,0.0,75,0.00,,,0.00,Wunderground v.1.15,2013-03-23 03:22:00,
2013-03-22 23:28:00,31.5,24.8,30.00,North,355,0.0,0.0,76,0.00,,,0.00,Wunderground v.1.15,2013-03-23 03:28:00,
2013-03-22 23:34:00,31.3,24.3,30.00,North,355,0.0,0.0,75,0.00,,,0.00,Wunderground v.1.15,2013-03-23 03:34:00,
2013-03-22 23:40:00,31.1,24.4,30.00,North,355,0.0,0.0,76,0.00,,,0.00,Wunderground v.1.15,2013-03-23 03:40:00,
2013-03-22 23:46:00,31.0,24.3,30.00,North,355,0.0,0.0,76,0.00,,,0.00,Wunderground v.1.15,2013-03-23 03:46:00,
2013-03-22 23:52:00,30.8,24.4,30.00,North,355,0.0,0.0,77,0.00,,,0.00,Wunderground v.1.15,2013-03-23 03:52:00,
2013-03-22 23:58:00,30.6,24.9,30.00,North,355,0.0,0.0,79,0.00,,,0.00,Wunderground v.1.15,2013-03-23 03:58:00,